Time,TemperatureF,DewpointF,PressureIn,WindDirection,WindDirectionDegrees,WindSpeedMPH,WindSpeedGustMPH,Humidity,HourlyPrecipIn,Conditions,Clouds,dailyrainin,SoftwareType,DateUTC
2013-02-06 00:01:00,-5.0,-7.0,-100.00,NNW,340,0.0,0.0,87,-99.99,,,-99.99,,2013-02-06 06:01:00,
2013-02-06 00:22:00,-5.0,-7.0,-100.00,NNW,340,0.0,0.0,87,-99.99,,,-99.99,,2013-02-06 06:22:00,
2013-02-06 00:32:00,-5.0,-7.0,-100.00,NNW,340,0.0,0.0,87,-99.99,,,-99.99,,2013-02-06 06:32:00,
2013-02-06 00:42:00,-5.0,-7.0,-100.00,NNW,340,0.0,0.0,87,-99.99,,,-99.99,,2013-02-06 06:42:00,
2013-02-06 00:52:00,-5.0,-7.0,-100.00,NNW,340,0.0,0.0,87,-99.99,,,-99.99,,2013-02-06 06:52:00,
2013-02-06 01:01:00,-5.0,-8.0,-100.00,NNE,20,0.0,0.0,87,-99.99,,,-99.99,,2013-02-06 07:01:00,
2013-02-06 01:22:00,-5.0,-8.0,-100.00,NNE,20,0.0,0.0,87,-99.99,,,-99.99,,2013-02-06 07:22:00,
2013-02-06 01:32:00,-5.0,-8.0,-100.00,NNE,20,0.0,0.0,87,-99.99,,,-99.99,,2013-02-06 07:32:00,
2013-02-06 01:42:00,-5.0,-8.0,-100.00,NNE,20,0.0,0.0,87,-99.99,,,-99.99,,2013-02-06 07:42:00,
2013-02-06 01:52:00,-5.0,-8.0,-100.00,NNE,20,0.0,0.0,87,-99.99,,,-99.99,,2013-02-06 07:52:00,
2013-02-06 02:01:00,-6.0,-9.0,-100.00,North,0,0.0,0.0,87,-99.99,,,-99.99,,2013-02-06 08:01:00,
2013-02-06 02:21:00,-6.0,-9.0,-100.00,North,0,0.0,0.0,87,-99.99,,,-99.99,,2013-02-06 08:21:00,
2013-02-06 02:32:00,-6.0,-9.0,-100.00,North,0,0.0,0.0,87,-99.99,,,-99.99,,2013-02-06 08:32:00,
2013-02-06 02:42:00,-6.0,-9.0,-100.00,North,0,0.0,0.0,87,-99.99,,,-99.99,,2013-02-06 08:42:00,
2013-02-06 02:53:00,-6.0,-9.0,-100.00,North,0,0.0,0.0,87,-99.99,,,-99.99,,2013-02-06 08:53:00,
2013-02-06 03:01:00,-7.0,-10.0,-100.00,NNW,330,0.0,0.0,86,-99.99,,,-99.99,,2013-02-06 09:01:00,
2013-02-06 03:22:00,-7.0,-10.0,-100.00,NNW,330,0.0,0.0,86,-99.99,,,-99.99,,2013-02-06 09:22:00,
2013-02-06 03:32:00,-7.0,-10.0,-100.00,NNW,330,0.0,0.0,86,-99.99,,,-99.99,,2013-02-06 09:32:00,
2013-02-06 03:42:00,-7.0,-10.0,-100.00,NNW,330,0.0,0.0,86,-99.99,,,-99.99,,2013-02-06 09:42:00,
2013-02-06 03:52:00,-7.0,-10.0,-100.00,NNW,330,0.0,0.0,86,-99.99,,,-99.99,,2013-02-06 09:52:00,
2013-02-06 04:01:00,-9.0,-12.0,-100.00,NNE,30,0.0,0.0,86,-99.99,,,-99.99,,2013-02-06 10:01:00,
2013-02-06 04:22:00,-9.0,-12.0,-100.00,NNE,30,0.0,0.0,86,-99.99,,,-99.99,,2013-02-06 10:22:00,
2013-02-06 04:32:00,-9.0,-12.0,-100.00,NNE,30,0.0,0.0,86,-99.99,,,-99.99,,2013-02-06 10:32:00,
2013-02-06 04:42:00,-9.0,-12.0,-100.00,NNE,30,0.0,0.0,86,-99.99,,,-99.99,,2013-02-06 10:42:00,
2013-02-06 04:52:00,-9.0,-12.0,-100.00,NNE,30,0.0,0.0,86,-99.99,,,-99.99,,2013-02-06 10:52:00,
2013-02-06 05:01:00,-8.0,-11.0,-100.00,ENE,65,0.0,0.0,86,-99.99,,,-99.99,,2013-02-06 11:01:00,
2013-02-06 05:22:00,-8.0,-11.0,-100.00,ENE,65,0.0,0.0,86,-99.99,,,-99.99,,2013-02-06 11:22:00,
2013-02-06 05:32:00,-8.0,-11.0,-100.00,ENE,65,0.0,0.0,86,-99.99,,,-99.99,,2013-02-06 11:32:00,
2013-02-06 05:42:00,-8.0,-11.0,-100.00,ENE,65,0.0,0.0,86,-99.99,,,-99.99,,2013-02-06 11:42:00,
2013-02-06 05:53:00,-8.0,-11.0,-100.00,ENE,65,0.0,0.0,86,-99.99,,,-99.99,,2013-02-06 11:53:00,
2013-02-06 06:01:00,-8.0,-11.0,-100.00,East,85,0.0,0.0,86,-99.99,,,-99.99,,2013-02-06 12:01:00,
2013-02-06 06:22:00,-8.0,-11.0,-100.00,East,85,0.0,0.0,86,-99.99,,,-99.99,,2013-02-06 12:22:00,
2013-02-06 06:32:00,-8.0,-11.0,-100.00,East,85,0.0,0.0,86,-99.99,,,-99.99,,2013-02-06 12:32:00,
2013-02-06 06:42:00,-8.0,-11.0,-100.00,East,85,0.0,0.0,86,-99.99,,,-99.99,,2013-02-06 12:42:00,
2013-02-06 06:52:00,-8.0,-11.0,-100.00,East,85,0.0,0.0,86,-99.99,,,-99.99,,2013-02-06 12:52:00,
2013-02-06 07:01:00,-10.0,-13.0,-100.00,NE,55,0.0,0.0,86,-99.99,,,-99.99,,2013-02-06 13:01:00,
2013-02-06 07:22:00,-10.0,-13.0,-100.00,NE,55,0.0,0.0,86,-99.99,,,-99.99,,2013-02-06 13:22:00,
2013-02-06 07:32:00,-10.0,-13.0,-100.00,NE,55,0.0,0.0,86,-99.99,,,-99.99,,2013-02-06 13:32:00,
2013-02-06 07:42:00,-10.0,-13.0,-100.00,NE,55,0.0,0.0,86,-99.99,,,-99.99,,2013-02-06 13:42:00,
2013-02-06 07:52:00,-10.0,-13.0,-100.00,NE,55,0.0,0.0,86,-99.99,,,-99.99,,2013-02-06 13:52:00,
2013-02-06 09:01:00,0.0,-3.0,-100.00,ESE,115,0.0,0.0,87,-99.99,,,-99.99,,2013-02-06 15:01:00,
2013-02-06 09:21:00,0.0,-3.0,-100.00,ESE,115,0.0,0.0,87,-99.99,,,-99.99,,2013-02-06 15:21:00,
2013-02-06 09:32:00,0.0,-3.0,-100.00,ESE,115,0.0,0.0,87,-99.99,,,-99.99,,2013-02-06 15:32:00,
2013-02-06 09:42:00,0.0,-3.0,-100.00,ESE,115,0.0,0.0,87,-99.99,,,-99.99,,2013-02-06 15:42:00,
2013-02-06 09:52:00,0.0,-3.0,-100.00,ESE,115,0.0,0.0,87,-99.99,,,-99.99,,2013-02-06 15:52:00,
2013-02-06 10:01:00,7.0,4.0,-100.00,East,90,0.0,0.0,88,-99.99,,,-99.99,,2013-02-06 16:01:00,
2013-02-06 10:22:00,7.0,4.0,-100.00,East,90,0.0,0.0,88,-99.99,,,-99.99,,2013-02-06 16:22:00,
2013-02-06 10:32:00,7.0,4.0,-100.00,East,90,0.0,0.0,88,-99.99,,,-99.99,,2013-02-06 16:32:00,
2013-02-06 10:42:00,7.0,4.0,-100.00,East,90,0.0,0.0,88,-99.99,,,-99.99,,2013-02-06 16:42:00,
2013-02-06 10:52:00,7.0,4.0,-100.00,East,90,0.0,0.0,88,-99.99,,,-99.99,,2013-02-06 16:52:00,
2013-02-06 11:01:00,12.0,9.0,-100.00,East,95,0.0,0.0,88,-99.99,,,-99.99,,2013-02-06 17:01:00,
2013-02-06 11:22:00,12.0,9.0,-100.00,East,95,0.0,0.0,88,-99.99,,,-99.99,,2013-02-06 17:22:00,
2013-02-06 11:32:00,12.0,9.0,-100.00,East,95,0.0,0.0,88,-99.99,,,-99.99,,2013-02-06 17:32:00,
2013-02-06 11:42:00,12.0,9.0,-100.00,East,95,0.0,0.0,88,-99.99,,,-99.99,,2013-02-06 17:42:00,
2013-02-06 11:52:00,12.0,9.0,-100.00,East,95,0.0,0.0,88,-99.99,,,-99.99,,2013-02-06 17:52:00,
2013-02-06 13:52:00,18.0,15.0,-100.00,ESE,110,0.0,0.0,88,-99.99,,,-99.99,,2013-02-06 19:52:00,
2013-02-06 14:01:00,18.0,15.0,-100.00,ESE,110,0.0,0.0,88,-99.99,,,-99.99,,2013-02-06 20:01:00,
2013-02-06 14:11:00,18.0,15.0,-100.00,ESE,110,0.0,0.0,88,-99.99,,,-99.99,,2013-02-06 20:11:00,
2013-02-06 14:21:00,18.0,15.0,-100.00,ESE,110,0.0,0.0,88,-99.99,,,-99.99,,2013-02-06 20:21:00,
2013-02-06 15:42:00,19.0,18.0,-100.00,ESE,120,0.0,0.0,94,-99.99,,,-99.99,,2013-02-06 21:42:00,
2013-02-06 15:52:00,19.0,18.0,-100.00,ESE,120,0.0,0.0,94,-99.99,,,-99.99,,2013-02-06 21:52:00,
2013-02-06 16:01:00,19.0,18.0,-100.00,ESE,120,0.0,0.0,94,-99.99,,,-99.99,,2013-02-06 22:01:00,
2013-02-06 16:11:00,19.0,18.0,-100.00,ESE,120,0.0,0.0,94,-99.99,,,-99.99,,2013-02-06 22:11:00,
2013-02-06 16:21:00,19.0,18.0,-100.00,ESE,120,0.0,0.0,94,-99.99,,,-99.99,,2013-02-06 22:21:00,
2013-02-06 16:42:00,20.0,18.0,-100.00,SE,130,0.0,0.0,94,-99.99,,,-99.99,,2013-02-06 22:42:00,
2013-02-06 16:52:00,20.0,19.0,-100.00,ESE,105,0.0,0.0,94,-99.99,,,-99.99,,2013-02-06 22:52:00,
2013-02-06 17:01:00,20.0,19.0,-100.00,ESE,105,0.0,0.0,94,-99.99,,,-99.99,,2013-02-06 23:01:00,
2013-02-06 17:11:00,20.0,19.0,-100.00,ESE,105,0.0,0.0,94,-99.99,,,-99.99,,2013-02-06 23:11:00,
2013-02-06 17:21:00,20.0,19.0,-100.00,ESE,105,0.0,0.0,94,-99.99,,,-99.99,,2013-02-06 23:21:00,
2013-02-06 17:52:00,21.0,19.0,-100.00,ESE,120,0.0,0.0,94,-99.99,,,-99.99,,2013-02-06 23:52:00,
2013-02-06 18:01:00,21.0,19.0,-100.00,ESE,120,0.0,0.0,94,-99.99,,,-99.99,,2013-02-07 00:01:00,
2013-02-06 18:11:00,21.0,19.0,-100.00,ESE,120,0.0,0.0,94,-99.99,,,-99.99,,2013-02-07 00:11:00,
2013-02-06 18:21:00,21.0,19.0,-100.00,ESE,120,0.0,0.0,94,-99.99,,,-99.99,,2013-02-07 00:21:00,
2013-02-06 18:42:00,21.0,19.0,-100.00,ESE,115,0.0,0.0,94,-99.99,,,-99.99,,2013-02-07 00:42:00,
2013-02-06 18:52:00,21.0,20.0,-100.00,ESE,120,0.0,0.0,94,-99.99,,,-99.99,,2013-02-07 00:52:00,
2013-02-06 19:01:00,21.0,20.0,-100.00,ESE,120,0.0,0.0,94,-99.99,,,-99.99,,2013-02-07 01:01:00,
2013-02-06 19:11:00,21.0,20.0,-100.00,ESE,120,0.0,0.0,94,-99.99,,,-99.99,,2013-02-07 01:11:00,
2013-02-06 19:21:00,21.0,20.0,-100.00,ESE,120,0.0,0.0,94,-99.99,,,-99.99,,2013-02-07 01:21:00,
2013-02-06 19:42:00,21.0,19.0,-100.00,SE,125,0.0,0.0,94,-99.99,,,-99.99,,2013-02-07 01:42:00,
2013-02-06 19:52:00,21.0,19.0,-100.00,SE,125,0.0,0.0,94,-99.99,,,-99.99,,2013-02-07 01:52:00,
2013-02-06 20:01:00,21.0,19.0,-100.00,SE,125,0.0,0.0,94,-99.99,,,-99.99,,2013-02-07 02:01:00,
2013-02-06 20:11:00,21.0,19.0,-100.00,SE,125,0.0,0.0,94,-99.99,,,-99.99,,2013-02-07 02:11:00,
2013-02-06 20:21:00,21.0,19.0,-100.00,SE,125,0.0,0.0,94,-99.99,,,-99.99,,2013-02-07 02:21:00,
2013-02-06 21:02:00,21.0,19.0,-100.00,ESE,115,0.0,0.0,94,-99.99,,,-99.99,,2013-02-07 03:02:00,
2013-02-06 21:11:00,21.0,19.0,-100.00,ESE,115,0.0,0.0,94,-99.99,,,-99.99,,2013-02-07 03:11:00,
2013-02-06 21:21:00,21.0,19.0,-100.00,ESE,115,0.0,0.0,94,-99.99,,,-99.99,,2013-02-07 03:21:00,
2013-02-06 21:52:00,20.0,19.0,-100.00,ESE,115,0.0,0.0,94,-99.99,,,-99.99,,2013-02-07 03:52:00,
2013-02-06 22:01:00,20.0,19.0,-100.00,ESE,115,0.0,0.0,94,-99.99,,,-99.99,,2013-02-07 04:01:00,
2013-02-06 22:11:00,20.0,19.0,-100.00,ESE,115,0.0,0.0,94,-99.99,,,-99.99,,2013-02-07 04:11:00,
2013-02-06 22:22:00,20.0,19.0,-100.00,ESE,115,0.0,0.0,94,-99.99,,,-99.99,,2013-02-07 04:22:00,
2013-02-06 22:42:00,21.0,19.0,-100.00,ESE,115,0.0,0.0,94,-99.99,,,-99.99,,2013-02-07 04:42:00,
2013-02-06 22:53:00,21.0,19.0,-100.00,ESE,115,0.0,0.0,94,-99.99,,,-99.99,,2013-02-07 04:53:00,
2013-02-06 23:02:00,21.0,19.0,-100.00,ESE,115,0.0,0.0,94,-99.99,,,-99.99,,2013-02-07 05:02:00,
2013-02-06 23:11:00,21.0,19.0,-100.00,ESE,115,0.0,0.0,94,-99.99,,,-99.99,,2013-02-07 05:11:00,
2013-02-06 23:21:00,21.0,19.0,-100.00,ESE,115,0.0,0.0,94,-99.99,,,-99.99,,2013-02-07 05:21:00,
2013-02-06 23:52:00,21.0,20.0,-100.00,ESE,120,0.0,0.0,96,-99.99,,,-99.99,,2013-02-07 05:52:00,